owner,sensor,date,latitude,longitude,air_temperature,qcFlag 
DISL,ioos:station:DISL:MBLA:1,2014-12-01T00:00:00Z,30.4367,-88.0117,16.76,1111122 
DISL,ioos:station:DISL:MBLA:1,2014-12-01T00:30:00Z,30.4367,-88.0117,16.7,1111122 
DISL,ioos:station:DISL:MBLA:1,2014-12-01T01:00:00Z,30.4367,-88.0117,17.52,1111122 
DISL,ioos:station:DISL:MBLA:1,2014-12-01T01:30:00Z,30.4367,-88.0117,16.67,1111122 
DISL,ioos:station:DISL:MBLA:1,2014-12-01T02:00:00Z,30.4367,-88.0117,16.33,1111122 
DISL,ioos:station:DISL:MBLA:1,2014-12-01T02:30:00Z,30.4367,-88.0117,16.13,1111122 
DISL,ioos:station:DISL:MBLA:1,2014-12-01T03:00:00Z,30.4367,-88.0117,16.13,1111122 
DISL,ioos:station:DISL:MBLA:1,2014-12-01T03:30:00Z,30.4367,-88.0117,15.86,1111122 
DISL,ioos:station:DISL:MBLA:1,2014-12-01T04:00:00Z,30.4367,-88.0117,15.86,1111122 
DISL,ioos:station:DISL:MBLA:1,2014-12-01T04:30:00Z,30.4367,-88.0117,15.86,1111122 
DISL,ioos:station:DISL:MBLA:1,2014-12-01T05:00:00Z,30.4367,-88.0117,15.89,1111122 
DISL,ioos:station:DISL:MBLA:1,2014-12-01T05:30:00Z,30.4367,-88.0117,15.99,1111122 
DISL,ioos:station:DISL:MBLA:1,2014-12-01T06:00:00Z,30.4367,-88.0117,15.99,1111122 
DISL,ioos:station:DISL:MBLA:1,2014-12-01T06:30:00Z,30.4367,-88.0117,15.93,1111122 
DISL,ioos:station:DISL:MBLA:1,2014-12-01T07:00:00Z,30.4367,-88.0117,15.76,1111122 
DISL,ioos:station:DISL:MBLA:1,2014-12-01T07:30:00Z,30.4367,-88.0117,15.89,1111122 
DISL,ioos:station:DISL:MBLA:1,2014-12-01T08:00:00Z,30.4367,-88.0117,15.55,1111122 
DISL,ioos:station:DISL:MBLA:1,2014-12-01T08:30:00Z,30.4367,-88.0117,15.49,1111122 
DISL,ioos:station:DISL:MBLA:1,2014-12-01T09:00:00Z,30.4367,-88.0117,15.45,1111122 
DISL,ioos:station:DISL:MBLA:1,2014-12-01T09:30:00Z,30.4367,-88.0117,15.08,1111122 
DISL,ioos:station:DISL:MBLA:1,2014-12-01T10:00:00Z,30.4367,-88.0117,15.11,1111122 
DISL,ioos:station:DISL:MBLA:1,2014-12-01T10:30:00Z,30.4367,-88.0117,15.04,1111122 
DISL,ioos:station:DISL:MBLA:1,2014-12-01T11:00:00Z,30.4367,-88.0117,14.98,1111122 
DISL,ioos:station:DISL:MBLA:1,2014-12-01T11:30:00Z,30.4367,-88.0117,14.88,1111122 
DISL,ioos:station:DISL:MBLA:1,2014-12-01T12:00:00Z,30.4367,-88.0117,14.5,1111122 
DISL,ioos:station:DISL:MBLA:1,2014-12-01T12:30:00Z,30.4367,-88.0117,14.47,1111122 
DISL,ioos:station:DISL:MBLA:1,2014-12-01T13:00:00Z,30.4367,-88.0117,14.5,1111122 
DISL,ioos:station:DISL:MBLA:1,2014-12-01T13:30:00Z,30.4367,-88.0117,14.6,1111122 
DISL,ioos:station:DISL:MBLA:1,2014-12-01T14:00:00Z,30.4367,-88.0117,14.81,1111122 
DISL,ioos:station:DISL:MBLA:1,2014-12-01T14:30:00Z,30.4367,-88.0117,15.66,1111122 
DISL,ioos:station:DISL:MBLA:1,2014-12-01T15:00:00Z,30.4367,-88.0117,16.19,1111122 
DISL,ioos:station:DISL:MBLA:1,2014-12-01T15:30:00Z,30.4367,-88.0117,17.04,1111122 
DISL,ioos:station:DISL:MBLA:1,2014-12-01T16:00:00Z,30.4367,-88.0117,19.81,1111122 
DISL,ioos:station:DISL:MBLA:1,2014-12-01T16:30:00Z,30.4367,-88.0117,20.31,1111122 
DISL,ioos:station:DISL:MBLA:1,2014-12-01T17:00:00Z,30.4367,-88.0117,21.21,1111122 
DISL,ioos:station:DISL:MBLA:1,2014-12-01T17:30:00Z,30.4367,-88.0117,18.53,1111122 
DISL,ioos:station:DISL:MBLA:1,2014-12-01T18:00:00Z,30.4367,-88.0117,17.85,1111122 
DISL,ioos:station:DISL:MBLA:1,2014-12-01T18:30:00Z,30.4367,-88.0117,17.92,1111122 
DISL,ioos:station:DISL:MBLA:1,2014-12-01T19:00:00Z,30.4367,-88.0117,17.75,1111122 
DISL,ioos:station:DISL:MBLA:1,2014-12-01T19:30:00Z,30.4367,-88.0117,17.99,1111122 
DISL,ioos:station:DISL:MBLA:1,2014-12-01T20:00:00Z,30.4367,-88.0117,18.02,1111122 
DISL,ioos:station:DISL:MBLA:1,2014-12-01T20:30:00Z,30.4367,-88.0117,18.06,1111122 
DISL,ioos:station:DISL:MBLA:1,2014-12-01T21:00:00Z,30.4367,-88.0117,18.26,1111122 
DISL,ioos:station:DISL:MBLA:1,2014-12-01T21:30:00Z,30.4367,-88.0117,18.06,1111122 
DISL,ioos:station:DISL:MBLA:1,2014-12-01T22:00:00Z,30.4367,-88.0117,17.82,1111122 
DISL,ioos:station:DISL:MBLA:1,2014-12-01T22:30:00Z,30.4367,-88.0117,17.65,1111122 
DISL,ioos:station:DISL:MBLA:1,2014-12-01T23:00:00Z,30.4367,-88.0117,17.3,1111122 
DISL,ioos:station:DISL:MBLA:1,2014-12-01T23:30:00Z,30.4367,-88.0117,17.16,1111122 
DISL,ioos:station:DISL:MBLA:1,2014-12-02T00:00:00Z,30.4367,-88.0117,17.27,1111122 
DISL,ioos:station:DISL:MBLA:1,2014-12-02T00:30:00Z,30.4367,-88.0117,16.26,1111122 
DISL,ioos:station:DISL:MBLA:1,2014-12-02T01:00:00Z,30.4367,-88.0117,17.27,1111122 
DISL,ioos:station:DISL:MBLA:1,2014-12-02T01:30:00Z,30.4367,-88.0117,17.34,1111122 
DISL,ioos:station:DISL:MBLA:1,2014-12-02T02:00:00Z,30.4367,-88.0117,17.24,1111122 
DISL,ioos:station:DISL:MBLA:1,2014-12-02T02:30:00Z,30.4367,-88.0117,16.7,1111122 
DISL,ioos:station:DISL:MBLA:1,2014-12-02T03:00:00Z,30.4367,-88.0117,16.6,1111122 
DISL,ioos:station:DISL:MBLA:1,2014-12-02T03:30:00Z,30.4367,-88.0117,16.23,1111122 
DISL,ioos:station:DISL:MBLA:1,2014-12-02T04:00:00Z,30.4367,-88.0117,15.76,1111122 
DISL,ioos:station:DISL:MBLA:1,2014-12-02T04:30:00Z,30.4367,-88.0117,15.66,1111122 
DISL,ioos:station:DISL:MBLA:1,2014-12-02T05:00:00Z,30.4367,-88.0117,15.69,1111122 
DISL,ioos:station:DISL:MBLA:1,2014-12-02T05:30:00Z,30.4367,-88.0117,15.52,1111122 
DISL,ioos:station:DISL:MBLA:1,2014-12-02T06:00:00Z,30.4367,-88.0117,15.56,1111122 
DISL,ioos:station:DISL:MBLA:1,2014-12-02T06:30:00Z,30.4367,-88.0117,15.25,1111122 
DISL,ioos:station:DISL:MBLA:1,2014-12-02T07:00:00Z,30.4367,-88.0117,15.45,1111122 
DISL,ioos:station:DISL:MBLA:1,2014-12-02T07:30:00Z,30.4367,-88.0117,15.62,1111122 
DISL,ioos:station:DISL:MBLA:1,2014-12-02T08:00:00Z,30.4367,-88.0117,15.35,1111122 
DISL,ioos:station:DISL:MBLA:1,2014-12-02T08:30:00Z,30.4367,-88.0117,14.94,1111122 
DISL,ioos:station:DISL:MBLA:1,2014-12-02T09:00:00Z,30.4367,-88.0117,14.64,1111122 
DISL,ioos:station:DISL:MBLA:1,2014-12-02T09:30:00Z,30.4367,-88.0117,14.98,1111122 
DISL,ioos:station:DISL:MBLA:1,2014-12-02T10:00:00Z,30.4367,-88.0117,14.85,1111122 
DISL,ioos:station:DISL:MBLA:1,2014-12-02T10:30:00Z,30.4367,-88.0117,14.78,1111122 
DISL,ioos:station:DISL:MBLA:1,2014-12-02T11:00:00Z,30.4367,-88.0117,14.34,1111122 
DISL,ioos:station:DISL:MBLA:1,2014-12-02T11:30:00Z,30.4367,-88.0117,14.31,1111122 
DISL,ioos:station:DISL:MBLA:1,2014-12-02T12:00:00Z,30.4367,-88.0117,14.38,1111122 
DISL,ioos:station:DISL:MBLA:1,2014-12-02T12:30:00Z,30.4367,-88.0117,14.41,1111122 
DISL,ioos:station:DISL:MBLA:1,2014-12-02T13:00:00Z,30.4367,-88.0117,14.82,1111122 
DISL,ioos:station:DISL:MBLA:1,2014-12-02T13:30:00Z,30.4367,-88.0117,15.86,1111122 
DISL,ioos:station:DISL:MBLA:1,2014-12-02T14:00:00Z,30.4367,-88.0117,15.86,1111122 
DISL,ioos:station:DISL:MBLA:1,2014-12-02T14:30:00Z,30.4367,-88.0117,16.54,1111122 
DISL,ioos:station:DISL:MBLA:1,2014-12-02T15:00:00Z,30.4367,-88.0117,16.49,1111122 
DISL,ioos:station:DISL:MBLA:1,2014-12-02T15:30:00Z,30.4367,-88.0117,16.8,1111122 
DISL,ioos:station:DISL:MBLA:1,2014-12-02T16:00:00Z,30.4367,-88.0117,17.23,1111122 
DISL,ioos:station:DISL:MBLA:1,2014-12-02T16:30:00Z,30.4367,-88.0117,17.23,1111122 
DISL,ioos:station:DISL:MBLA:1,2014-12-02T17:00:00Z,30.4367,-88.0117,18.28,1111122 
DISL,ioos:station:DISL:MBLA:1,2014-12-02T17:30:00Z,30.4367,-88.0117,18.47,1111122 
DISL,ioos:station:DISL:MBLA:1,2014-12-02T18:00:00Z,30.4367,-88.0117,20.13,1111122 
DISL,ioos:station:DISL:MBLA:1,2014-12-02T18:30:00Z,30.4367,-88.0117,20.02,1111122 
DISL,ioos:station:DISL:MBLA:1,2014-12-02T19:00:00Z,30.4367,-88.0117,21.04,1111122 
DISL,ioos:station:DISL:MBLA:1,2014-12-02T19:30:00Z,30.4367,-88.0117,21.73,1111122 
DISL,ioos:station:DISL:MBLA:1,2014-12-02T20:00:00Z,30.4367,-88.0117,18.72,1111122 
DISL,ioos:station:DISL:MBLA:1,2014-12-02T20:30:00Z,30.4367,-88.0117,19.09,1111122 
DISL,ioos:station:DISL:MBLA:1,2014-12-02T21:00:00Z,30.4367,-88.0117,20.24,1111122 
DISL,ioos:station:DISL:MBLA:1,2014-12-02T21:30:00Z,30.4367,-88.0117,19.23,1111122 
DISL,ioos:station:DISL:MBLA:1,2014-12-02T22:00:00Z,30.4367,-88.0117,19.1,1111122 
DISL,ioos:station:DISL:MBLA:1,2014-12-02T22:30:00Z,30.4367,-88.0117,18.57,1111122 
DISL,ioos:station:DISL:MBLA:1,2014-12-02T23:00:00Z,30.4367,-88.0117,18.4,1111122 
DISL,ioos:station:DISL:MBLA:1,2014-12-02T23:30:00Z,30.4367,-88.0117,18.27,1111122 
DISL,ioos:station:DISL:MBLA:1,2014-12-03T00:00:00Z,30.4367,-88.0117,17.84,1111122 
DISL,ioos:station:DISL:MBLA:1,2014-12-03T00:30:00Z,30.4367,-88.0117,18.04,1111122 
DISL,ioos:station:DISL:MBLA:1,2014-12-03T01:00:00Z,30.4367,-88.0117,17.37,1111122 
DISL,ioos:station:DISL:MBLA:1,2014-12-03T01:30:00Z,30.4367,-88.0117,17.54,1111122 
DISL,ioos:station:DISL:MBLA:1,2014-12-03T02:00:00Z,30.4367,-88.0117,16.87,1111122 
DISL,ioos:station:DISL:MBLA:1,2014-12-03T02:30:00Z,30.4367,-88.0117,16.76,1111122 
DISL,ioos:station:DISL:MBLA:1,2014-12-03T03:00:00Z,30.4367,-88.0117,16.97,1111122 
DISL,ioos:station:DISL:MBLA:1,2014-12-03T03:30:00Z,30.4367,-88.0117,16.83,1111122 
DISL,ioos:station:DISL:MBLA:1,2014-12-03T04:00:00Z,30.4367,-88.0117,16.6,1111122 
DISL,ioos:station:DISL:MBLA:1,2014-12-03T04:30:00Z,30.4367,-88.0117,16.19,1111122 
DISL,ioos:station:DISL:MBLA:1,2014-12-03T05:00:00Z,30.4367,-88.0117,16.03,1111122 
DISL,ioos:station:DISL:MBLA:1,2014-12-03T05:30:00Z,30.4367,-88.0117,16.16,1111122 
DISL,ioos:station:DISL:MBLA:1,2014-12-03T06:00:00Z,30.4367,-88.0117,16.13,1111122 
DISL,ioos:station:DISL:MBLA:1,2014-12-03T06:30:00Z,30.4367,-88.0117,15.72,1111122 
DISL,ioos:station:DISL:MBLA:1,2014-12-03T07:00:00Z,30.4367,-88.0117,15.82,1111122 
DISL,ioos:station:DISL:MBLA:1,2014-12-03T07:30:00Z,30.4367,-88.0117,15.69,1111122 
DISL,ioos:station:DISL:MBLA:1,2014-12-03T08:00:00Z,30.4367,-88.0117,15.62,1111122 
DISL,ioos:station:DISL:MBLA:1,2014-12-03T08:30:00Z,30.4367,-88.0117,15.55,1111122 
DISL,ioos:station:DISL:MBLA:1,2014-12-03T09:00:00Z,30.4367,-88.0117,15.35,1111122 
DISL,ioos:station:DISL:MBLA:1,2014-12-03T09:30:00Z,30.4367,-88.0117,15.32,1111122 
DISL,ioos:station:DISL:MBLA:1,2014-12-03T10:00:00Z,30.4367,-88.0117,15.18,1111122 
DISL,ioos:station:DISL:MBLA:1,2014-12-03T10:30:00Z,30.4367,-88.0117,15.32,1111122 
DISL,ioos:station:DISL:MBLA:1,2014-12-03T11:00:00Z,30.4367,-88.0117,15.11,1111122 
DISL,ioos:station:DISL:MBLA:1,2014-12-03T11:30:00Z,30.4367,-88.0117,14.74,1111122 
DISL,ioos:station:DISL:MBLA:1,2014-12-03T12:00:00Z,30.4367,-88.0117,14.78,1111122 
DISL,ioos:station:DISL:MBLA:1,2014-12-03T12:30:00Z,30.4367,-88.0117,14.71,1111122 
DISL,ioos:station:DISL:MBLA:1,2014-12-03T13:00:00Z,30.4367,-88.0117,14.74,1111122 
DISL,ioos:station:DISL:MBLA:1,2014-12-03T13:30:00Z,30.4367,-88.0117,16.27,1111122 
DISL,ioos:station:DISL:MBLA:1,2014-12-03T14:00:00Z,30.4367,-88.0117,16.84,1111122 
DISL,ioos:station:DISL:MBLA:1,2014-12-03T14:30:00Z,30.4367,-88.0117,17.24,1111122 
DISL,ioos:station:DISL:MBLA:1,2014-12-03T15:00:00Z,30.4367,-88.0117,17.71,1111122 
DISL,ioos:station:DISL:MBLA:1,2014-12-03T15:30:00Z,30.4367,-88.0117,17.81,1111122 
DISL,ioos:station:DISL:MBLA:1,2014-12-03T16:00:00Z,30.4367,-88.0117,17.47,1111122 
DISL,ioos:station:DISL:MBLA:1,2014-12-03T16:30:00Z,30.4367,-88.0117,17.36,1111122 
DISL,ioos:station:DISL:MBLA:1,2014-12-03T17:00:00Z,30.4367,-88.0117,18.11,1111122 
DISL,ioos:station:DISL:MBLA:1,2014-12-03T17:30:00Z,30.4367,-88.0117,18.74,1111122 
DISL,ioos:station:DISL:MBLA:1,2014-12-03T18:00:00Z,30.4367,-88.0117,20.16,1111122 
DISL,ioos:station:DISL:MBLA:1,2014-12-03T18:30:00Z,30.4367,-88.0117,19.21,1111122 
DISL,ioos:station:DISL:MBLA:1,2014-12-03T19:00:00Z,30.4367,-88.0117,17.92,1111122 
DISL,ioos:station:DISL:MBLA:1,2014-12-03T19:30:00Z,30.4367,-88.0117,20.06,1111122 
DISL,ioos:station:DISL:MBLA:1,2014-12-03T20:00:00Z,30.4367,-88.0117,20.06,1111122 
DISL,ioos:station:DISL:MBLA:1,2014-12-03T20:30:00Z,30.4367,-88.0117,19.92,1111122 
DISL,ioos:station:DISL:MBLA:1,2014-12-03T21:00:00Z,30.4367,-88.0117,19.79,1111122 
DISL,ioos:station:DISL:MBLA:1,2014-12-03T21:30:00Z,30.4367,-88.0117,19.25,1111122 
DISL,ioos:station:DISL:MBLA:1,2014-12-03T22:00:00Z,30.4367,-88.0117,19.16,1111122 
DISL,ioos:station:DISL:MBLA:1,2014-12-03T22:30:00Z,30.4367,-88.0117,19.37,1111122 
DISL,ioos:station:DISL:MBLA:1,2014-12-03T23:00:00Z,30.4367,-88.0117,18.72,1111122 
DISL,ioos:station:DISL:MBLA:1,2014-12-03T23:30:00Z,30.4367,-88.0117,18.01,1111122 
DISL,ioos:station:DISL:MBLA:1,2014-12-04T00:00:00Z,30.4367,-88.0117,17.74,1111122 
DISL,ioos:station:DISL:MBLA:1,2014-12-04T00:30:00Z,30.4367,-88.0117,17.13,1111122 
DISL,ioos:station:DISL:MBLA:1,2014-12-04T01:00:00Z,30.4367,-88.0117,16.97,1111122 
DISL,ioos:station:DISL:MBLA:1,2014-12-04T01:30:00Z,30.4367,-88.0117,16.9,1111122 
DISL,ioos:station:DISL:MBLA:1,2014-12-04T02:00:00Z,30.4367,-88.0117,17.54,1111122 
DISL,ioos:station:DISL:MBLA:1,2014-12-04T02:30:00Z,30.4367,-88.0117,17.68,1111122 
DISL,ioos:station:DISL:MBLA:1,2014-12-04T03:00:00Z,30.4367,-88.0117,16.9,1111122 
DISL,ioos:station:DISL:MBLA:1,2014-12-04T03:30:00Z,30.4367,-88.0117,17.0,1111122 
DISL,ioos:station:DISL:MBLA:1,2014-12-04T04:00:00Z,30.4367,-88.0117,16.8,1111122 
DISL,ioos:station:DISL:MBLA:1,2014-12-04T04:30:00Z,30.4367,-88.0117,16.46,1111122 
DISL,ioos:station:DISL:MBLA:1,2014-12-04T05:00:00Z,30.4367,-88.0117,16.33,1111122 
DISL,ioos:station:DISL:MBLA:1,2014-12-04T05:30:00Z,30.4367,-88.0117,16.6,1111122 
DISL,ioos:station:DISL:MBLA:1,2014-12-04T06:00:00Z,30.4367,-88.0117,16.6,1111122 
DISL,ioos:station:DISL:MBLA:1,2014-12-04T06:30:00Z,30.4367,-88.0117,16.13,1111122 
DISL,ioos:station:DISL:MBLA:1,2014-12-04T07:00:00Z,30.4367,-88.0117,15.89,1111122 
DISL,ioos:station:DISL:MBLA:1,2014-12-04T07:30:00Z,30.4367,-88.0117,15.89,1111122 
DISL,ioos:station:DISL:MBLA:1,2014-12-04T08:00:00Z,30.4367,-88.0117,15.66,1111122 
DISL,ioos:station:DISL:MBLA:1,2014-12-04T08:30:00Z,30.4367,-88.0117,15.69,1111122 
DISL,ioos:station:DISL:MBLA:1,2014-12-04T09:00:00Z,30.4367,-88.0117,15.62,1111122 
DISL,ioos:station:DISL:MBLA:1,2014-12-04T09:30:00Z,30.4367,-88.0117,15.42,1111122 
DISL,ioos:station:DISL:MBLA:1,2014-12-04T10:00:00Z,30.4367,-88.0117,15.08,1111122 
DISL,ioos:station:DISL:MBLA:1,2014-12-04T10:30:00Z,30.4367,-88.0117,14.94,1111122 
DISL,ioos:station:DISL:MBLA:1,2014-12-04T11:00:00Z,30.4367,-88.0117,14.88,1111122 
DISL,ioos:station:DISL:MBLA:1,2014-12-04T11:30:00Z,30.4367,-88.0117,14.88,1111122 
DISL,ioos:station:DISL:MBLA:1,2014-12-04T12:00:00Z,30.4367,-88.0117,14.91,1111122 
DISL,ioos:station:DISL:MBLA:1,2014-12-04T12:30:00Z,30.4367,-88.0117,14.98,1111122 
DISL,ioos:station:DISL:MBLA:1,2014-12-04T13:00:00Z,30.4367,-88.0117,15.45,1111122 
DISL,ioos:station:DISL:MBLA:1,2014-12-04T13:30:00Z,30.4367,-88.0117,16.98,1111122 
DISL,ioos:station:DISL:MBLA:1,2014-12-04T14:00:00Z,30.4367,-88.0117,19.07,1111122 
DISL,ioos:station:DISL:MBLA:1,2014-12-04T14:30:00Z,30.4367,-88.0117,20.55,1111122 
DISL,ioos:station:DISL:MBLA:1,2014-12-04T15:00:00Z,30.4367,-88.0117,20.61,1111122 
DISL,ioos:station:DISL:MBLA:1,2014-12-04T15:30:00Z,30.4367,-88.0117,20.91,1111122 
DISL,ioos:station:DISL:MBLA:1,2014-12-04T16:00:00Z,30.4367,-88.0117,21.14,1111122 
DISL,ioos:station:DISL:MBLA:1,2014-12-04T16:30:00Z,30.4367,-88.0117,21.21,1111122 
DISL,ioos:station:DISL:MBLA:1,2014-12-04T17:00:00Z,30.4367,-88.0117,21.9,1111122 
DISL,ioos:station:DISL:MBLA:1,2014-12-04T17:30:00Z,30.4367,-88.0117,23.59,1111122 
DISL,ioos:station:DISL:MBLA:1,2014-12-04T18:00:00Z,30.4367,-88.0117,19.94,1111122 
DISL,ioos:station:DISL:MBLA:1,2014-12-04T18:30:00Z,30.4367,-88.0117,19.94,1111122 
DISL,ioos:station:DISL:MBLA:1,2014-12-04T19:00:00Z,30.4367,-88.0117,19.84,1111122 
DISL,ioos:station:DISL:MBLA:1,2014-12-04T19:30:00Z,30.4367,-88.0117,19.81,1111122 
DISL,ioos:station:DISL:MBLA:1,2014-12-04T20:00:00Z,30.4367,-88.0117,19.75,1111122 
DISL,ioos:station:DISL:MBLA:1,2014-12-04T20:30:00Z,30.4367,-88.0117,19.98,1111122 
DISL,ioos:station:DISL:MBLA:1,2014-12-04T21:00:00Z,30.4367,-88.0117,19.95,1111122 
DISL,ioos:station:DISL:MBLA:1,2014-12-04T21:30:00Z,30.4367,-88.0117,19.85,1111122 
DISL,ioos:station:DISL:MBLA:1,2014-12-04T22:00:00Z,30.4367,-88.0117,19.41,1111122 
DISL,ioos:station:DISL:MBLA:1,2014-12-04T22:30:00Z,30.4367,-88.0117,18.7,1111122 
DISL,ioos:station:DISL:MBLA:1,2014-12-04T23:00:00Z,30.4367,-88.0117,18.7,1111122 
DISL,ioos:station:DISL:MBLA:1,2014-12-04T23:30:00Z,30.4367,-88.0117,18.45,1111122 
DISL,ioos:station:DISL:MBLA:1,2014-12-05T00:00:00Z,30.4367,-88.0117,18.25,1111122 
DISL,ioos:station:DISL:MBLA:1,2014-12-05T00:30:00Z,30.4367,-88.0117,18.08,1111122 
DISL,ioos:station:DISL:MBLA:1,2014-12-05T01:00:00Z,30.4367,-88.0117,18.04,1111122 
DISL,ioos:station:DISL:MBLA:1,2014-12-05T01:30:00Z,30.4367,-88.0117,17.7,1111122 
DISL,ioos:station:DISL:MBLA:1,2014-12-05T02:00:00Z,30.4367,-88.0117,17.3,1111122 
DISL,ioos:station:DISL:MBLA:1,2014-12-05T02:30:00Z,30.4367,-88.0117,17.37,1111122 
DISL,ioos:station:DISL:MBLA:1,2014-12-05T03:00:00Z,30.4367,-88.0117,17.17,1111122 
DISL,ioos:station:DISL:MBLA:1,2014-12-05T03:30:00Z,30.4367,-88.0117,17.31,1111122 
DISL,ioos:station:DISL:MBLA:1,2014-12-05T04:00:00Z,30.4367,-88.0117,17.34,1111122 
DISL,ioos:station:DISL:MBLA:1,2014-12-05T04:30:00Z,30.4367,-88.0117,17.07,1111122 
DISL,ioos:station:DISL:MBLA:1,2014-12-05T05:00:00Z,30.4367,-88.0117,17.24,1111122 
DISL,ioos:station:DISL:MBLA:1,2014-12-05T05:30:00Z,30.4367,-88.0117,17.1,1111122 
DISL,ioos:station:DISL:MBLA:1,2014-12-05T06:00:00Z,30.4367,-88.0117,17.04,1111122 
DISL,ioos:station:DISL:MBLA:1,2014-12-05T06:30:00Z,30.4367,-88.0117,17.0,1111122 
DISL,ioos:station:DISL:MBLA:1,2014-12-05T07:00:00Z,30.4367,-88.0117,16.83,1111122 
DISL,ioos:station:DISL:MBLA:1,2014-12-05T07:30:00Z,30.4367,-88.0117,16.66,1111122 
DISL,ioos:station:DISL:MBLA:1,2014-12-05T08:00:00Z,30.4367,-88.0117,16.5,1111122 
DISL,ioos:station:DISL:MBLA:1,2014-12-05T08:30:00Z,30.4367,-88.0117,16.43,1111122 
DISL,ioos:station:DISL:MBLA:1,2014-12-05T09:00:00Z,30.4367,-88.0117,16.33,1111122 
DISL,ioos:station:DISL:MBLA:1,2014-12-05T09:30:00Z,30.4367,-88.0117,16.4,1111122 
DISL,ioos:station:DISL:MBLA:1,2014-12-05T10:00:00Z,30.4367,-88.0117,16.37,1111122 
DISL,ioos:station:DISL:MBLA:1,2014-12-05T10:30:00Z,30.4367,-88.0117,16.33,1111122 
DISL,ioos:station:DISL:MBLA:1,2014-12-05T11:00:00Z,30.4367,-88.0117,16.3,1111122 
DISL,ioos:station:DISL:MBLA:1,2014-12-05T11:30:00Z,30.4367,-88.0117,15.96,1111122 
DISL,ioos:station:DISL:MBLA:1,2014-12-05T12:00:00Z,30.4367,-88.0117,15.76,1111122 
DISL,ioos:station:DISL:MBLA:1,2014-12-05T12:30:00Z,30.4367,-88.0117,15.52,1111122 
DISL,ioos:station:DISL:MBLA:1,2014-12-05T13:00:00Z,30.4367,-88.0117,15.66,1111122 
DISL,ioos:station:DISL:MBLA:1,2014-12-05T13:30:00Z,30.4367,-88.0117,16.13,1111122 
DISL,ioos:station:DISL:MBLA:1,2014-12-05T14:00:00Z,30.4367,-88.0117,16.8,1111122 
DISL,ioos:station:DISL:MBLA:1,2014-12-05T14:30:00Z,30.4367,-88.0117,17.34,1111122 
DISL,ioos:station:DISL:MBLA:1,2014-12-05T15:00:00Z,30.4367,-88.0117,18.01,1111122 
DISL,ioos:station:DISL:MBLA:1,2014-12-05T15:30:00Z,30.4367,-88.0117,18.65,1111122 
DISL,ioos:station:DISL:MBLA:1,2014-12-05T16:00:00Z,30.4367,-88.0117,19.23,1111122 
DISL,ioos:station:DISL:MBLA:1,2014-12-05T16:30:00Z,30.4367,-88.0117,19.43,1111122 
DISL,ioos:station:DISL:MBLA:1,2014-12-05T17:00:00Z,30.4367,-88.0117,19.39,1111122 
DISL,ioos:station:DISL:MBLA:1,2014-12-05T17:30:00Z,30.4367,-88.0117,19.39,1111122 
DISL,ioos:station:DISL:MBLA:1,2014-12-05T18:00:00Z,30.4367,-88.0117,19.59,1111122 
DISL,ioos:station:DISL:MBLA:1,2014-12-05T18:30:00Z,30.4367,-88.0117,19.52,1111122 
DISL,ioos:station:DISL:MBLA:1,2014-12-05T19:00:00Z,30.4367,-88.0117,19.55,1111122 
DISL,ioos:station:DISL:MBLA:1,2014-12-05T19:30:00Z,30.4367,-88.0117,19.65,1111122 
DISL,ioos:station:DISL:MBLA:1,2014-12-05T20:00:00Z,30.4367,-88.0117,19.68,1111122 
DISL,ioos:station:DISL:MBLA:1,2014-12-05T20:30:00Z,30.4367,-88.0117,19.58,1111122 
DISL,ioos:station:DISL:MBLA:1,2014-12-05T21:00:00Z,30.4367,-88.0117,19.68,1111122 
DISL,ioos:station:DISL:MBLA:1,2014-12-05T21:30:00Z,30.4367,-88.0117,19.62,1111122 
DISL,ioos:station:DISL:MBLA:1,2014-12-05T22:00:00Z,30.4367,-88.0117,19.41,1111122 
DISL,ioos:station:DISL:MBLA:1,2014-12-05T22:30:00Z,30.4367,-88.0117,19.42,1111122 
DISL,ioos:station:DISL:MBLA:1,2014-12-05T23:00:00Z,30.4367,-88.0117,19.4,1111122 
DISL,ioos:station:DISL:MBLA:1,2014-12-05T23:30:00Z,30.4367,-88.0117,19.09,1111122 
DISL,ioos:station:DISL:MBLA:1,2014-12-06T00:00:00Z,30.4367,-88.0117,18.96,1111122 
DISL,ioos:station:DISL:MBLA:1,2014-12-06T00:30:00Z,30.4367,-88.0117,18.65,1111122 
DISL,ioos:station:DISL:MBLA:1,2014-12-06T01:00:00Z,30.4367,-88.0117,18.59,1111122 
DISL,ioos:station:DISL:MBLA:1,2014-12-06T01:30:00Z,30.4367,-88.0117,18.21,1111122 
DISL,ioos:station:DISL:MBLA:1,2014-12-06T02:00:00Z,30.4367,-88.0117,18.15,1111122 
DISL,ioos:station:DISL:MBLA:1,2014-12-06T02:30:00Z,30.4367,-88.0117,18.18,1111122 
DISL,ioos:station:DISL:MBLA:1,2014-12-06T03:00:00Z,30.4367,-88.0117,18.04,1111122 
DISL,ioos:station:DISL:MBLA:1,2014-12-06T03:30:00Z,30.4367,-88.0117,18.01,1111122 
DISL,ioos:station:DISL:MBLA:1,2014-12-06T04:00:00Z,30.4367,-88.0117,17.98,1111122 
DISL,ioos:station:DISL:MBLA:1,2014-12-06T04:30:00Z,30.4367,-88.0117,17.74,1111122 
DISL,ioos:station:DISL:MBLA:1,2014-12-06T05:00:00Z,30.4367,-88.0117,17.88,1111122 
DISL,ioos:station:DISL:MBLA:1,2014-12-06T05:30:00Z,30.4367,-88.0117,17.91,1111122 
DISL,ioos:station:DISL:MBLA:1,2014-12-06T06:00:00Z,30.4367,-88.0117,17.84,1111122 
DISL,ioos:station:DISL:MBLA:1,2014-12-06T06:30:00Z,30.4367,-88.0117,17.88,1111122 
DISL,ioos:station:DISL:MBLA:1,2014-12-06T07:00:00Z,30.4367,-88.0117,17.88,1111122 
DISL,ioos:station:DISL:MBLA:1,2014-12-06T07:30:00Z,30.4367,-88.0117,17.84,1111122 
DISL,ioos:station:DISL:MBLA:1,2014-12-06T08:00:00Z,30.4367,-88.0117,17.67,1111122 
DISL,ioos:station:DISL:MBLA:1,2014-12-06T08:30:00Z,30.4367,-88.0117,17.64,1111122 
DISL,ioos:station:DISL:MBLA:1,2014-12-06T09:00:00Z,30.4367,-88.0117,17.41,1111122 
DISL,ioos:station:DISL:MBLA:1,2014-12-06T09:30:00Z,30.4367,-88.0117,17.48,1111122 
DISL,ioos:station:DISL:MBLA:1,2014-12-06T10:00:00Z,30.4367,-88.0117,17.24,1111122 
DISL,ioos:station:DISL:MBLA:1,2014-12-06T10:30:00Z,30.4367,-88.0117,17.17,1111122 
DISL,ioos:station:DISL:MBLA:1,2014-12-06T11:00:00Z,30.4367,-88.0117,16.97,1111122 
DISL,ioos:station:DISL:MBLA:1,2014-12-06T11:30:00Z,30.4367,-88.0117,16.97,1111122 
DISL,ioos:station:DISL:MBLA:1,2014-12-06T12:00:00Z,30.4367,-88.0117,17.1,1111122 
DISL,ioos:station:DISL:MBLA:1,2014-12-06T12:30:00Z,30.4367,-88.0117,16.97,1111122 
DISL,ioos:station:DISL:MBLA:1,2014-12-06T13:00:00Z,30.4367,-88.0117,17.31,1111122 
DISL,ioos:station:DISL:MBLA:1,2014-12-06T13:30:00Z,30.4367,-88.0117,17.41,1111122 
DISL,ioos:station:DISL:MBLA:1,2014-12-06T14:00:00Z,30.4367,-88.0117,16.96,1111122 
DISL,ioos:station:DISL:MBLA:1,2014-12-06T14:30:00Z,30.4367,-88.0117,16.86,1111122 
DISL,ioos:station:DISL:MBLA:1,2014-12-06T15:00:00Z,30.4367,-88.0117,16.62,1111122 
DISL,ioos:station:DISL:MBLA:1,2014-12-06T15:30:00Z,30.4367,-88.0117,16.69,1111122 
DISL,ioos:station:DISL:MBLA:1,2014-12-06T16:00:00Z,30.4367,-88.0117,18.14,1111122 
DISL,ioos:station:DISL:MBLA:1,2014-12-06T16:30:00Z,30.4367,-88.0117,19.01,1111122 
DISL,ioos:station:DISL:MBLA:1,2014-12-06T17:00:00Z,30.4367,-88.0117,19.58,1111122 
DISL,ioos:station:DISL:MBLA:1,2014-12-06T17:30:00Z,30.4367,-88.0117,19.53,1111122 
DISL,ioos:station:DISL:MBLA:1,2014-12-06T18:00:00Z,30.4367,-88.0117,19.26,1111122 
DISL,ioos:station:DISL:MBLA:1,2014-12-06T18:30:00Z,30.4367,-88.0117,19.57,1111122 
DISL,ioos:station:DISL:MBLA:1,2014-12-06T19:00:00Z,30.4367,-88.0117,19.7,1111122 
DISL,ioos:station:DISL:MBLA:1,2014-12-06T19:30:00Z,30.4367,-88.0117,19.44,1111122 
DISL,ioos:station:DISL:MBLA:1,2014-12-06T20:00:00Z,30.4367,-88.0117,21.11,1111122 
DISL,ioos:station:DISL:MBLA:1,2014-12-06T20:30:00Z,30.4367,-88.0117,23.07,1111122 
DISL,ioos:station:DISL:MBLA:1,2014-12-06T21:00:00Z,30.4367,-88.0117,20.72,1111122 
DISL,ioos:station:DISL:MBLA:1,2014-12-06T21:30:00Z,30.4367,-88.0117,19.37,1111122 
DISL,ioos:station:DISL:MBLA:1,2014-12-06T22:00:00Z,30.4367,-88.0117,19.31,1111122 
DISL,ioos:station:DISL:MBLA:1,2014-12-06T22:30:00Z,30.4367,-88.0117,18.94,1111122 
DISL,ioos:station:DISL:MBLA:1,2014-12-06T23:00:00Z,30.4367,-88.0117,18.87,1111122 
DISL,ioos:station:DISL:MBLA:1,2014-12-06T23:30:00Z,30.4367,-88.0117,19.97,1111122 